Castle Airport
KMER : now visible

Airfield :











YOU CAN JOIN US ON...

 
LOGIN :

Register | Disclaimer

   EN    FR    IT 

 









Legend :    VFR   Marginal VFR   IFR   Intensive IFR   Very Intensive IFR
Visi :
Ceiling :
>= 8 km
>= 3000ft
5 to 8 km
1000 to 3000 ft
1500m to 5 km
500 to 1000 ft
800 to 1500m
200 to 500 ft
< 800m
< 200 ft
Symbols :   Thunderstorms  Fog  Heavy snow  Heavy precipitations  Wind > 20 kt






- Airport Elevation : 191 ft


KMER - Castle

METAR N/A
TAF KMER
Valid from the 06 at 00:00 until the 07 at 00:00 UTC


052320Z 0600/0624 15012G22KT P6SM VCSH OVC040
FM060300 14008KT 4SM RA BR BKN030 OVC050
FM061200 VRB03KT 6SM -RA BR OVC050
FM061500 14006KT 4SM -RA BR OVC035
PROB30 0616/0618 P6SM -RA OVC050
FM061800 14008KT P6SM OVC050
FM062000 17006KT 6SM -RA OVC050
FM062100 17005KT 4SM -RA HZ BR OVC050



MET'MAP, your aeronautical weather chart ! - Copyright ORBIFLY December 2007 - Disclaimer

ORBIFLY MET'MAP TEAM :

Programming & Development : Alexandra Zaïnal
Concept & original design : Baudouin d'Aumeries
Assistance for programming : Marc-Olivier Méhu
Technical & hardware support : Manuel Goepfert

Contact : metmap@orbifly.com




SOURCES & CREDITS :

   NOAA       Earth
Advisory